TimeCST,TemperatureF,Dew PointF,Humidity,Sea Level PressureIn,VisibilityMPH,Wind Direction,Wind SpeedMPH,Gust SpeedMPH,PrecipitationIn,Events,Conditions,WindDirDegrees,DateUTC
12:15 AM,44.8,41.5,88,30.25,10.0,Calm,Calm,-,N/A,,Clear,0,2013-03-07 06:15:00
12:35 AM,43.2,40.8,91,30.25,10.0,Calm,Calm,-,N/A,,Clear,0,2013-03-07 06:35:00
12:55 AM,43.2,43.0,99,30.25,10.0,Calm,Calm,-,N/A,,Clear,0,2013-03-07 06:55:00
1:15 AM,44.2,44.2,100,30.25,10.0,Calm,Calm,-,N/A,,Clear,0,2013-03-07 07:15:00
1:35 AM,42.8,42.8,100,30.24,10.0,Calm,Calm,-,N/A,,Clear,0,2013-03-07 07:35:00
1:55 AM,41.0,41.0,100,30.23,10.0,Calm,Calm,-,N/A,,Clear,0,2013-03-07 07:55:00
2:15 AM,41.4,41.4,100,30.24,10.0,Calm,Calm,-,N/A,,Clear,0,2013-03-07 08:15:00
2:35 AM,41.9,41.9,100,30.22,10.0,Calm,Calm,-,N/A,,Clear,0,2013-03-07 08:35:00
2:55 AM,41.4,41.4,100,30.21,10.0,Calm,Calm,-,N/A,,Clear,0,2013-03-07 08:55:00
3:15 AM,41.5,41.5,100,30.21,10.0,Calm,Calm,-,N/A,,Clear,0,2013-03-07 09:15:00
3:35 AM,40.8,40.8,100,30.19,10.0,East,3.5,-,N/A,,Clear,80,2013-03-07 09:35:00
3:55 AM,39.4,39.4,100,30.19,10.0,Calm,Calm,-,N/A,,Clear,0,2013-03-07 09:55:00
4:15 AM,38.8,38.8,100,30.18,10.0,Calm,Calm,-,N/A,,Clear,0,2013-03-07 10:15:00
4:35 AM,38.7,38.7,100,30.20,10.0,NE,3.5,-,N/A,,Clear,50,2013-03-07 10:35:00
4:55 AM,39.2,39.2,100,30.20,10.0,NE,3.5,-,N/A,,Clear,50,2013-03-07 10:55:00
5:15 AM,38.8,38.8,100,30.20,10.0,ENE,5.8,-,N/A,,Clear,60,2013-03-07 11:15:00
5:35 AM,39.0,39.0,100,30.20,10.0,ENE,4.6,-,N/A,,Clear,60,2013-03-07 11:35:00
5:55 AM,40.3,40.3,100,30.20,10.0,NE,5.8,-,N/A,,Clear,50,2013-03-07 11:55:00
6:15 AM,39.7,39.7,100,30.21,10.0,NE,5.8,-,N/A,,Clear,50,2013-03-07 12:15:00
6:35 AM,41.4,41.4,100,30.21,10.0,NE,4.6,-,N/A,,Clear,50,2013-03-07 12:35:00
6:55 AM,41.7,41.7,100,30.23,10.0,NE,4.6,-,N/A,,Clear,50,2013-03-07 12:55:00
7:15 AM,42.6,42.6,100,30.24,10.0,ENE,5.8,-,N/A,,Clear,60,2013-03-07 13:15:00
7:35 AM,44.8,44.8,100,30.24,10.0,ENE,4.6,-,N/A,,Clear,60,2013-03-07 13:35:00
7:55 AM,47.1,47.1,100,30.25,10.0,ENE,5.8,-,N/A,,Clear,60,2013-03-07 13:55:00
8:15 AM,50.4,50.2,99,30.25,10.0,ENE,6.9,-,N/A,,Clear,60,2013-03-07 14:15:00
8:35 AM,54.5,50.4,86,30.26,10.0,ENE,8.1,-,N/A,,Clear,70,2013-03-07 14:35:00
8:55 AM,58.1,49.8,74,30.26,10.0,East,6.9,-,N/A,,Clear,90,2013-03-07 14:55:00
9:15 AM,61.3,50.0,66,30.26,10.0,East,11.5,-,N/A,,Clear,90,2013-03-07 15:15:00
9:35 AM,64.2,50.0,60,30.27,10.0,East,10.4,-,N/A,,Clear,100,2013-03-07 15:35:00
9:55 AM,66.2,50.0,56,30.26,10.0,East,13.8,21.9,N/A,,Clear,100,2013-03-07 15:55:00
10:15 AM,67.3,50.0,54,30.27,10.0,ESE,12.7,-,N/A,,Clear,110,2013-03-07 16:15:00
10:35 AM,68.5,49.5,50,30.27,10.0,ESE,13.8,18.4,N/A,,Clear,120,2013-03-07 16:35:00
10:55 AM,68.7,49.1,50,30.27,10.0,ESE,12.7,-,N/A,,Clear,110,2013-03-07 16:55:00
11:15 AM,69.8,48.7,47,30.27,10.0,ESE,10.4,19.6,N/A,,Clear,110,2013-03-07 17:15:00
11:35 AM,70.2,48.6,46,30.26,10.0,SE,10.4,18.4,N/A,,Clear,140,2013-03-07 17:35:00
11:55 AM,70.9,48.7,45,30.25,10.0,ESE,12.7,19.6,N/A,,Clear,110,2013-03-07 17:55:00
12:15 PM,71.6,48.6,44,30.25,10.0,SE,13.8,19.6,N/A,,Clear,140,2013-03-07 18:15:00
12:35 PM,72.0,48.6,43,30.24,10.0,ESE,15.0,20.7,N/A,,Clear,120,2013-03-07 18:35:00
12:55 PM,71.2,48.2,44,30.23,10.0,East,13.8,-,N/A,,Clear,100,2013-03-07 18:55:00
1:15 PM,71.6,48.2,43,30.22,10.0,ESE,11.5,-,N/A,,Clear,120,2013-03-07 19:15:00
1:35 PM,71.6,48.2,43,30.21,10.0,SE,13.8,-,N/A,,Clear,130,2013-03-07 19:35:00
1:55 PM,71.2,48.2,44,30.20,10.0,ESE,13.8,-,N/A,,Clear,120,2013-03-07 19:55:00
2:15 PM,71.2,48.4,44,30.20,10.0,ESE,11.5,-,N/A,,Clear,120,2013-03-07 20:15:00
2:35 PM,71.1,48.9,45,30.19,10.0,ESE,13.8,-,N/A,,Scattered Clouds,110,2013-03-07 20:35:00
2:55 PM,71.2,49.3,46,30.19,10.0,SE,13.8,19.6,N/A,,Clear,130,2013-03-07 20:55:00
3:15 PM,71.2,49.6,46,30.18,10.0,ESE,12.7,18.4,N/A,,Clear,120,2013-03-07 21:15:00
3:35 PM,70.9,49.5,47,30.17,10.0,ESE,16.1,20.7,N/A,,Clear,120,2013-03-07 21:35:00
3:55 PM,70.3,49.8,48,30.18,10.0,ESE,16.1,-,N/A,,Scattered Clouds,110,2013-03-07 21:55:00
4:15 PM,69.4,50.4,51,30.18,10.0,ESE,12.7,20.7,N/A,,Scattered Clouds,110,2013-03-07 22:15:00
4:35 PM,68.4,50.7,53,30.18,10.0,ESE,11.5,21.9,N/A,,Clear,110,2013-03-07 22:35:00
4:55 PM,67.8,50.5,54,30.18,10.0,ESE,15.0,-,N/A,,Clear,110,2013-03-07 22:55:00
5:15 PM,66.9,50.0,54,30.18,10.0,ESE,8.1,-,N/A,,Clear,110,2013-03-07 23:15:00
5:35 PM,66.0,50.0,56,30.18,10.0,East,10.4,-,N/A,,Clear,100,2013-03-07 23:35:00
5:55 PM,64.8,50.0,59,30.18,10.0,East,10.4,-,N/A,,Clear,100,2013-03-07 23:55:00
7:35 PM,58.5,51.3,77,30.20,10.0,East,5.8,-,N/A,,Clear,90,2013-03-08 01:35:00
7:55 PM,57.2,51.1,80,30.20,10.0,East,5.8,-,N/A,,Clear,90,2013-03-08 01:55:00
8:15 PM,56.5,51.1,82,30.20,10.0,East,4.6,-,N/A,,Clear,80,2013-03-08 02:15:00
8:35 PM,55.8,50.9,84,30.19,10.0,ENE,4.6,-,N/A,,Clear,70,2013-03-08 02:35:00
8:55 PM,54.7,50.5,86,30.20,10.0,ENE,4.6,-,N/A,,Clear,60,2013-03-08 02:55:00
9:15 PM,54.9,50.7,86,30.20,10.0,ENE,3.5,-,N/A,,Clear,70,2013-03-08 03:15:00
9:35 PM,54.0,50.7,89,30.21,10.0,NE,3.5,-,N/A,,Clear,50,2013-03-08 03:35:00
9:55 PM,53.8,50.5,89,30.20,10.0,East,5.8,-,N/A,,Clear,80,2013-03-08 03:55:00
10:15 PM,52.3,51.4,97,30.20,10.0,East,6.9,-,N/A,,Clear,80,2013-03-08 04:15:00
10:35 PM,53.1,53.1,100,30.20,10.0,East,5.8,-,N/A,,Clear,80,2013-03-08 04:35:00
10:55 PM,53.4,53.4,100,30.19,10.0,East,4.6,-,N/A,,Clear,80,2013-03-08 04:55:00
11:15 PM,54.3,54.3,100,30.19,10.0,East,6.9,-,N/A,,Clear,90,2013-03-08 05:15:00
11:35 PM,55.2,55.2,100,30.19,10.0,East,6.9,-,N/A,,Clear,90,2013-03-08 05:35:00
11:55 PM,55.4,55.4,100,30.18,10.0,East,8.1,-,N/A,,Clear,80,2013-03-08 05:55:00